Regional Weather Roundup
Issued by NWS

Home | Current Version | Previous Version | Graphics & Text | Print | Product List | Glossary On
Versions: 1 2 3 4 5 6 7 8 9 10 11 12 13 14 15 16 17 18 19 20 21 22 23 24 25 26 27 28 29 30 31 32 33 34 35 36 37 38 39 40 41 42 43 44 45 46 47 48 49 50
000
ASUS43 KDMX 230001
RWRIA

WEATHER ROUNDUP FOR IOWA
NATIONAL WEATHER SERVICE DES MOINES IA
700 PM CDT FRI SEP 22 2017

NOTE: "FAIR" INDICATES FEW OR NO CLOUDS BELOW 12,000 FEET WITH NO
SIGNIFICANT WEATHER AND/OR OBSTRUCTIONS TO VISIBILITY.

* - THESE STATIONS ARE NOT NWS STATIONS...THUS NOT UNDER NWS
QUALITY CONTROL.  THEY ALSO DO NOT REPORT WEATHER SUCH
AS PRECIPITATION OR FOG.

IAZ001>003-012>014-020>022-031>034-043>046-230100-
   NORTHWEST IOWA

CITY           SKY/WX    TMP DP  RH WIND       PRES   REMARKS
CARROLL *      CLEAR     86  68  54 S14G21    29.86S HX  89
CHEROKEE *     PTCLDY    85  67  55 S15G21    29.80S HX  87
DENISON *      CLEAR     86  68  54 S13G20    29.85S HX  89
LE MARS *      PTCLDY    88  70  55 SE17G24   29.76R HX  92
ORANGE CITY *  PTCLDY    88  70  55 S15       29.78R HX  92
SHELDON *      PTCLDY    86  70  58 S16G24    29.77R HX  90
SIOUX CITY     PTCLDY    88  70  55 S18G28    29.76R HX  93
6HR MIN TEMP:  88; 6HR MAX TEMP:  94;

SPENCER        CLEAR     86  67  52 S20G26    29.80S HX  89
6HR MIN TEMP:  86; 6HR MAX TEMP:  94;

STORM LAKE *   CLEAR     84  68  58 S15G24    29.84R HX  87
$$

IAZ055>058-069>071-079>083-090>094-230100-
   SOUTHWEST IOWA

CITY           SKY/WX    TMP DP  RH WIND       PRES   REMARKS
ATLANTIC *     CLEAR     86  68  54 S8        29.87S HX  89
AUDUBON *      CLEAR     84  70  61 S9        29.89S HX  88
CLARINDA *     CLEAR     86  70  58 S12G17    29.90R HX  90
COUNCIL BLFS * CLEAR     86  70  58 S13G20    29.85R HX  90
CRESTON *      CLEAR     84  68  58 S9        29.93R HX  87
HARLAN  *      CLEAR     86  68  54 S12G18    29.89R HX  89
LAMONI         CLEAR     85  67  54 S10       29.93S HX  87
6HR MIN TEMP:  85; 6HR MAX TEMP:  90;

RED OAK *      CLEAR     86  68  54 S13G18    29.87R HX  89
SHENANDOAH *   CLEAR     86  68  54 S14       29.87R HX  89
$$

IAZ047>049-059>061-072>074-084-230100-
   CENTRAL IOWA

CITY           SKY/WX    TMP DP  RH WIND       PRES   REMARKS
AMES           CLEAR     84  69  60 S9        29.90S HX  88
6HR MIN TEMP:  84; 6HR MAX TEMP:  91;

ANKENY *       CLEAR     86  68  54 S8G14     29.92R HX  89
BOONE *        CLEAR     84  68  58 S10       29.90S HX  87
CHARITON *     CLEAR     82  68  61 SE8       29.93S HX  85
DES MOINES     PTCLDY    86  67  52 SE10      29.90S HX  89
6HR MIN TEMP:  86; 6HR MAX TEMP:  92;

GRINNELL*      CLEAR     84  67  56 S8        29.95S HX  86
KNOXVILLE *    CLEAR     84  66  54 S7G13     29.92S HX  86
MARSHALLTOWN   CLEAR     85  68  56 S8        29.92R HX  88
6HR MIN TEMP:  85; 6HR MAX TEMP:  91;

NEWTON *       CLEAR     84  68  58 S7        29.94R HX  87
PELLA *        CLEAR     86  65  50 S8        29.94S HX  87
PERRY *          N/A     86  65  48 SE8       29.89S HX  88
$$

IAZ004>006-015-016-023>025-035-036-230100-
   NORTH CENTRAL IOWA

CITY           SKY/WX    TMP DP  RH WIND       PRES   REMARKS
ALGONA *       CLEAR     86  66  51 S16G23    29.84R HX  88
CLARION *      CLEAR     84  70  61 S16G23    29.88S HX  88
ESTHERVILLE    CLEAR     84  68  58 S15G24    29.81R HX  87
6HR MIN TEMP:  84; 6HR MAX TEMP:  91;

FORT DODGE *   CLEAR     87  68  52 S13G18    29.87S HX  90
MASON CITY     CLEAR     84  67  56 S18G24    29.90S HX  86
6HR MIN TEMP:  84; 6HR MAX TEMP:  92;

FOREST CITY *    N/A     84  66  54 S12G22    29.87S HX  86
WEBSTER CITY * CLEAR     86  68  54 S13       29.87S HX  89
IOWA FALLS *     N/A     85  68  56 S9G17     29.93S HX  88
$$

IAZ007>011-017>019-026>030-037>042-050>054-066-230100-
   NORTHEAST IOWA

CITY           SKY/WX    TMP DP  RH WIND       PRES   REMARKS
CEDAR RAPIDS   CLEAR     85  66  53 S6        29.95S HX  87
6HR MIN TEMP:  85; 6HR MAX TEMP:  93;

CHARLES CITY * CLEAR     84  66  54 S12       29.93S HX  86
CLINTON *      CLEAR    N/A N/A N/A SE6       29.99S
DECORAH *      CLEAR     84  66  54 S7        29.94R HX  86
DUBUQUE        CLEAR     80  68  66 SE7       30.00R HX  83
6HR MIN TEMP:  80; 6HR MAX TEMP:  88;

MONTICELLO *   CLEAR     84  66  54 SE3       29.96S HX  86
OELWEIN *      CLEAR     84  66  54 S10       29.96R HX  86
WATERLOO       CLEAR     85  65  51 S13       29.92R HX  86
6HR MIN TEMP:  85; 6HR MAX TEMP:  93;

$$

IAZ064-065-067-068-078-230100-
   EAST CENTRAL IOWA

CITY           SKY/WX    TMP DP  RH WIND       PRES   REMARKS
DAVENPORT      CLEAR     82  65  56 S6        29.99F HX  84
6HR MIN TEMP:  82; 6HR MAX TEMP:  91;

IOWA CITY      CLEAR     86  68  54 S5        29.96S HX  89
6HR MIN TEMP:  86; 6HR MAX TEMP:  94;

MUSCATINE *    CLEAR     86  66  51 S6        29.96S HX  88
QUAD CITIES    CLEAR     82  68  62 SE6       29.97S HX  85
6HR MIN TEMP:  82; 6HR MAX TEMP:  93;

$$

IAZ062-063-075>077-085>089-095>099-230100-
   SOUTHEAST IOWA

CITY           SKY/WX    TMP DP  RH WIND       PRES   REMARKS
BURLINGTON     CLEAR     85  65  51 SE6       29.97R HX  86
6HR MIN TEMP:  83; 6HR MAX TEMP:  93;

FAIRFIELD *    CLEAR     86  64  48 S6        29.95S HX  87
FORT MADISON * CLEAR     88  64  45 S6        29.98R HX  89
KEOKUK *       CLEAR     88  63  42 S6        29.96S HX  88
OSKALOOSA *      N/A     83  66  57 S5        29.95S HX  85
OTTUMWA        CLEAR     84  67  56 S5        29.95R HX  86
6HR MIN TEMP:  84; 6HR MAX TEMP:  92;

WASHINGTON *   CLEAR     82  68  61 S5        29.97S HX  85
$$

ABBREVIATIONS USED IN REMARKS
   TC - TEMPERATURES IN CELSIUS
  WCI - WIND CHILL INDEX
   HX - HEAT INDEX
  VSB - VISIBILITY
$$





USA.gov is the U.S. government's official web portal to all federal, state and local government web resources and services.